Time,TemperatureF,DewpointF,PressureIn,WindDirection,WindDirectionDegrees,WindSpeedMPH,WindSpeedGustMPH,Humidity,HourlyPrecipIn,Conditions,Clouds,dailyrainin,SoftwareType,DateUTC
2013-01-03 00:00:00,17.7,14.0,30.09,SW,225,5.0,6.0,85,0.00,,---,0.00,VWS V14.01,2013-01-03 06:00:00,
2013-01-03 00:15:00,18.2,14.5,30.09,SW,225,5.0,8.0,85,0.00,,---,0.00,VWS V14.01,2013-01-03 06:15:00,
2013-01-03 00:30:00,18.0,14.3,30.10,SW,225,4.0,7.0,85,0.00,,---,0.00,VWS V14.01,2013-01-03 06:30:00,
2013-01-03 00:45:00,18.4,14.9,30.10,SW,225,4.0,8.0,86,0.00,,---,0.00,VWS V14.01,2013-01-03 06:45:00,
2013-01-03 01:00:00,18.5,15.0,30.09,SW,225,4.0,6.0,86,0.00,,---,0.00,VWS V14.01,2013-01-03 07:00:00,
2013-01-03 01:15:00,18.6,15.1,30.10,SW,225,3.0,5.0,86,0.00,,---,0.00,VWS V14.01,2013-01-03 07:15:00,
2013-01-03 01:30:00,19.0,15.5,30.10,SW,225,5.0,8.0,86,0.00,,---,0.00,VWS V14.01,2013-01-03 07:30:00,
2013-01-03 01:45:00,19.2,15.4,30.10,SW,225,5.0,9.0,85,0.00,,---,0.00,VWS V14.01,2013-01-03 07:45:00,
2013-01-03 02:00:00,19.2,15.4,30.10,SW,225,5.0,8.0,85,0.00,,---,0.00,VWS V14.01,2013-01-03 08:00:00,
2013-01-03 02:15:00,19.2,15.7,30.11,SW,225,5.0,7.0,86,0.00,,---,0.00,VWS V14.01,2013-01-03 08:15:00,
2013-01-03 02:30:00,19.3,15.5,30.11,SW,225,5.0,8.0,85,0.00,,---,0.00,VWS V14.01,2013-01-03 08:30:00,
2013-01-03 02:45:00,19.2,15.4,30.10,SW,225,6.0,8.0,85,0.00,,---,0.00,VWS V14.01,2013-01-03 08:45:00,
2013-01-03 03:00:00,19.1,15.3,30.10,SW,225,6.0,9.0,85,0.00,,---,0.00,VWS V14.01,2013-01-03 09:00:00,
2013-01-03 03:15:00,19.3,15.8,30.09,WSW,248,5.0,8.0,86,0.00,,---,0.00,VWS V14.01,2013-01-03 09:15:00,
2013-01-03 03:30:00,19.3,15.8,30.10,WSW,248,6.0,8.0,86,0.00,,---,0.00,VWS V14.01,2013-01-03 09:30:00,
2013-01-03 03:45:00,19.2,15.7,30.10,WSW,248,6.0,9.0,86,0.00,,---,0.00,VWS V14.01,2013-01-03 09:45:00,
2013-01-03 04:00:00,19.2,15.7,30.09,SW,225,6.0,8.0,86,0.00,,---,0.00,VWS V14.01,2013-01-03 10:00:00,
2013-01-03 04:15:00,19.3,15.8,30.09,SW,225,6.0,9.0,86,0.00,,---,0.00,VWS V14.01,2013-01-03 10:15:00,
2013-01-03 04:30:00,19.3,15.8,30.09,WSW,248,6.0,10.0,86,0.00,,---,0.00,VWS V14.01,2013-01-03 10:30:00,
2013-01-03 04:45:00,19.3,15.8,30.09,WSW,248,6.0,11.0,86,0.00,,---,0.00,VWS V14.01,2013-01-03 10:45:00,
2013-01-03 05:00:00,19.4,15.9,30.10,WSW,248,6.0,12.0,86,0.00,,---,0.00,VWS V14.01,2013-01-03 11:00:00,
2013-01-03 05:15:00,19.4,18.0,30.10,WSW,248,6.0,11.0,94,0.00,,---,0.00,VWS V14.01,2013-01-03 11:15:00,
2013-01-03 05:30:00,19.5,16.0,30.10,WSW,248,8.0,12.0,86,0.00,,---,0.00,VWS V14.01,2013-01-03 11:30:00,
2013-01-03 05:45:00,19.6,16.1,30.11,West,270,7.0,12.0,86,0.00,,---,0.00,VWS V14.01,2013-01-03 11:45:00,
2013-01-03 06:00:00,19.5,16.0,30.12,WSW,248,6.0,10.0,86,0.00,,---,0.00,VWS V14.01,2013-01-03 12:00:00,
2013-01-03 06:15:00,19.5,16.0,30.12,WSW,248,6.0,9.0,86,0.00,,---,0.00,VWS V14.01,2013-01-03 12:15:00,
2013-01-03 06:30:00,19.5,16.0,30.12,WSW,248,6.0,12.0,86,0.00,,---,0.00,VWS V14.01,2013-01-03 12:30:00,
2013-01-03 06:45:00,19.5,15.7,30.13,West,270,7.0,11.0,85,0.00,,---,0.00,VWS V14.01,2013-01-03 12:45:00,
2013-01-03 07:00:00,19.5,15.7,30.13,West,270,6.0,11.0,85,0.00,,---,0.00,VWS V14.01,2013-01-03 13:00:00,
2013-01-03 07:15:00,19.5,15.7,30.14,West,270,7.0,12.0,85,0.00,,---,0.00,VWS V14.01,2013-01-03 13:15:00,
2013-01-03 07:30:00,19.4,15.6,30.14,West,270,7.0,12.0,85,0.00,,---,0.00,VWS V14.01,2013-01-03 13:30:00,
2013-01-03 07:45:00,19.4,15.9,30.15,West,270,6.0,10.0,86,0.00,,---,0.00,VWS V14.01,2013-01-03 13:45:00,
2013-01-03 08:14:00,19.5,15.7,30.16,West,259,7.0,7.0,85,0.00,,---,0.00,VWS V14.01,2013-01-03 14:14:00,
2013-01-03 08:15:00,19.5,15.7,30.16,West,281,4.0,9.0,85,0.00,,---,0.00,VWS V14.01,2013-01-03 14:15:00,
2013-01-03 08:19:00,19.5,15.7,30.16,West,260,5.0,11.0,85,0.00,,---,0.00,VWS V14.01,2013-01-03 14:19:00,
2013-01-03 08:24:00,19.5,15.7,30.16,West,261,3.0,11.0,85,0.00,,---,0.00,VWS V14.01,2013-01-03 14:24:00,
2013-01-03 08:29:00,19.6,15.8,30.16,WSW,255,7.0,11.0,85,0.00,,---,0.00,VWS V14.01,2013-01-03 14:29:00,
2013-01-03 08:34:00,19.6,16.1,30.16,West,263,6.0,11.0,86,0.00,,---,0.00,VWS V14.01,2013-01-03 14:34:00,
2013-01-03 08:39:00,19.7,16.2,30.16,West,259,6.0,13.0,86,0.00,,---,0.00,VWS V14.01,2013-01-03 14:39:00,
2013-01-03 08:44:00,19.7,16.2,30.16,West,273,7.0,13.0,86,0.00,,---,0.00,VWS V14.01,2013-01-03 14:44:00,
2013-01-03 08:50:00,19.7,16.2,30.17,WSW,250,7.0,10.0,86,0.00,,---,0.00,VWS V14.01,2013-01-03 14:50:00,
2013-01-03 08:55:00,19.8,16.0,30.17,WSW,258,5.0,11.0,85,0.00,,---,0.00,VWS V14.01,2013-01-03 14:55:00,
2013-01-03 09:00:00,19.8,16.3,30.17,West,265,7.0,12.0,86,0.00,,---,0.00,VWS V14.01,2013-01-03 15:00:00,
2013-01-03 09:05:00,19.9,16.4,30.17,West,262,8.0,12.0,86,0.00,,---,0.00,VWS V14.01,2013-01-03 15:05:00,
2013-01-03 09:10:00,19.9,16.4,30.17,West,263,5.0,12.0,86,0.00,,---,0.00,VWS V14.01,2013-01-03 15:10:00,
2013-01-03 09:15:00,20.0,16.5,30.17,WSW,257,7.0,12.0,86,0.00,,---,0.00,VWS V14.01,2013-01-03 15:15:00,
2013-01-03 09:20:00,20.0,16.5,30.17,West,275,5.0,10.0,86,0.00,,---,0.00,VWS V14.01,2013-01-03 15:20:00,
2013-01-03 09:25:00,20.1,16.6,30.18,WSW,256,7.0,10.0,86,0.00,,---,0.00,VWS V14.01,2013-01-03 15:25:00,
2013-01-03 09:30:00,20.2,16.7,30.18,West,259,8.0,10.0,86,0.00,,---,0.00,VWS V14.01,2013-01-03 15:30:00,
2013-01-03 09:35:00,20.2,16.7,30.18,WNW,290,5.0,11.0,86,0.00,,---,0.00,VWS V14.01,2013-01-03 15:35:00,
2013-01-03 09:40:00,20.3,16.8,30.18,WSW,255,7.0,11.0,86,0.00,,---,0.00,VWS V14.01,2013-01-03 15:40:00,
2013-01-03 09:45:00,20.4,16.9,30.19,West,267,5.0,11.0,86,0.00,,---,0.00,VWS V14.01,2013-01-03 15:45:00,
2013-01-03 09:50:00,20.5,17.0,30.19,WSW,257,5.0,10.0,86,0.00,,---,0.00,VWS V14.01,2013-01-03 15:50:00,
2013-01-03 09:55:00,20.6,17.1,30.19,West,264,6.0,10.0,86,0.00,,---,0.00,VWS V14.01,2013-01-03 15:55:00,
2013-01-03 10:00:00,20.6,17.1,30.19,WSW,250,7.0,10.0,86,0.00,,---,0.00,VWS V14.01,2013-01-03 16:00:00,
2013-01-03 10:05:00,20.7,17.2,30.19,West,265,4.0,9.0,86,0.00,,---,0.00,VWS V14.01,2013-01-03 16:05:00,
2013-01-03 10:10:00,20.8,17.3,30.19,West,277,3.0,10.0,86,0.00,,---,0.00,VWS V14.01,2013-01-03 16:10:00,
2013-01-03 10:15:00,20.8,17.3,30.20,WNW,298,4.0,4.0,86,0.00,,---,0.00,VWS V14.01,2013-01-03 16:15:00,
2013-01-03 10:20:00,20.9,17.4,30.20,West,274,4.0,9.0,86,0.00,,---,0.00,VWS V14.01,2013-01-03 16:20:00,
2013-01-03 10:25:00,20.9,17.4,30.20,West,277,6.0,14.0,86,0.00,,---,0.00,VWS V14.01,2013-01-03 16:25:00,
2013-01-03 10:30:00,20.9,17.4,30.19,West,260,7.0,7.0,86,0.00,,---,0.00,VWS V14.01,2013-01-03 16:30:00,
2013-01-03 10:36:00,21.0,17.5,30.20,West,264,5.0,12.0,86,0.00,,---,0.00,VWS V14.01,2013-01-03 16:36:00,
2013-01-03 10:41:00,21.1,17.6,30.20,West,266,8.0,12.0,86,0.00,,---,0.00,VWS V14.01,2013-01-03 16:41:00,
2013-01-03 10:46:00,21.1,17.6,30.20,WNW,286,8.0,9.0,86,0.00,,---,0.00,VWS V14.01,2013-01-03 16:46:00,
2013-01-03 10:51:00,21.1,17.6,30.20,WSW,254,8.0,13.0,86,0.00,,---,0.00,VWS V14.01,2013-01-03 16:51:00,
2013-01-03 10:56:00,21.2,17.7,30.19,West,262,7.0,13.0,86,0.00,,---,0.00,VWS V14.01,2013-01-03 16:56:00,
2013-01-03 11:01:00,21.3,17.8,30.19,West,261,4.0,7.0,86,0.00,,---,0.00,VWS V14.01,2013-01-03 17:01:00,
2013-01-03 11:06:00,21.3,17.8,30.19,WSW,257,10.0,12.0,86,0.00,,---,0.00,VWS V14.01,2013-01-03 17:06:00,
2013-01-03 11:11:00,21.4,17.9,30.19,WSW,255,10.0,12.0,86,0.00,,---,0.00,VWS V14.01,2013-01-03 17:11:00,
2013-01-03 11:16:00,21.4,17.9,30.19,West,259,7.0,10.0,86,0.00,,---,0.00,VWS V14.01,2013-01-03 17:16:00,
2013-01-03 11:21:00,21.5,18.0,30.19,WSW,253,5.0,10.0,86,0.00,,---,0.00,VWS V14.01,2013-01-03 17:21:00,
2013-01-03 11:26:00,21.6,18.1,30.19,WSW,250,9.0,12.0,86,0.00,,---,0.00,VWS V14.01,2013-01-03 17:26:00,
2013-01-03 11:31:00,21.6,18.1,30.19,WSW,252,6.0,9.0,86,0.00,,---,0.00,VWS V14.01,2013-01-03 17:31:00,
2013-01-03 11:36:00,21.7,18.2,30.19,West,262,9.0,12.0,86,0.00,,---,0.00,VWS V14.01,2013-01-03 17:36:00,
2013-01-03 11:41:00,21.7,17.9,30.18,West,273,6.0,12.0,85,0.00,,---,0.00,VWS V14.01,2013-01-03 17:41:00,
2013-01-03 11:46:00,21.9,18.4,30.18,WNW,286,6.0,8.0,86,0.00,,---,0.00,VWS V14.01,2013-01-03 17:46:00,
2013-01-03 11:51:00,21.9,18.4,30.18,WNW,284,6.0,12.0,86,0.00,,---,0.00,VWS V14.01,2013-01-03 17:51:00,
2013-01-03 11:56:00,22.0,18.2,30.18,WSW,246,11.0,12.0,85,0.00,,---,0.00,VWS V14.01,2013-01-03 17:56:00,
2013-01-03 12:01:00,22.0,18.2,30.18,West,264,8.0,12.0,85,0.00,,---,0.00,VWS V14.01,2013-01-03 18:01:00,
2013-01-03 12:06:00,22.0,18.2,30.18,WSW,257,11.0,14.0,85,0.00,,---,0.00,VWS V14.01,2013-01-03 18:06:00,
2013-01-03 12:11:00,22.0,18.2,30.17,WSW,256,7.0,14.0,85,0.00,,---,0.00,VWS V14.01,2013-01-03 18:11:00,
2013-01-03 12:16:00,22.1,18.3,30.17,WSW,255,11.0,14.0,85,0.00,,---,0.00,VWS V14.01,2013-01-03 18:16:00,
2013-01-03 12:21:00,22.2,18.7,30.17,West,272,10.0,14.0,86,0.00,,---,0.00,VWS V14.01,2013-01-03 18:21:00,
2013-01-03 12:26:00,22.2,18.4,30.17,WSW,253,11.0,14.0,85,0.00,,---,0.00,VWS V14.01,2013-01-03 18:26:00,
2013-01-03 12:31:00,22.3,18.5,30.17,West,261,8.0,10.0,85,0.00,,---,0.00,VWS V14.01,2013-01-03 18:31:00,
2013-01-03 12:36:00,22.4,18.6,30.17,West,263,5.0,15.0,85,0.00,,---,0.00,VWS V14.01,2013-01-03 18:36:00,
2013-01-03 12:41:00,22.4,18.6,30.17,WSW,246,8.0,15.0,85,0.00,,---,0.00,VWS V14.01,2013-01-03 18:41:00,
2013-01-03 12:47:00,22.5,18.7,30.17,West,262,7.0,11.0,85,0.00,,---,0.00,VWS V14.01,2013-01-03 18:47:00,
2013-01-03 12:52:00,22.6,18.8,30.17,West,259,9.0,11.0,85,0.00,,---,0.00,VWS V14.01,2013-01-03 18:52:00,
2013-01-03 12:57:00,22.6,18.8,30.17,WSW,253,8.0,11.0,85,0.00,,---,0.00,VWS V14.01,2013-01-03 18:57:00,
2013-01-03 13:02:00,22.7,18.9,30.17,WSW,251,7.0,10.0,85,0.00,,---,0.00,VWS V14.01,2013-01-03 19:02:00,
2013-01-03 13:07:00,22.7,18.9,30.17,WSW,256,6.0,11.0,85,0.00,,---,0.00,VWS V14.01,2013-01-03 19:07:00,
2013-01-03 13:12:00,22.8,19.0,30.17,West,266,6.0,13.0,85,0.00,,---,0.00,VWS V14.01,2013-01-03 19:12:00,
2013-01-03 13:17:00,22.8,19.0,30.17,West,265,4.0,8.0,85,0.00,,---,0.00,VWS V14.01,2013-01-03 19:17:00,
2013-01-03 13:53:00,23.2,19.1,30.17,WSW,255,4.0,10.0,84,0.00,,---,0.00,VWS V14.01,2013-01-03 19:53:00,
2013-01-03 13:58:00,23.2,19.1,30.17,WSW,253,6.0,10.0,84,0.00,,---,0.00,VWS V14.01,2013-01-03 19:58:00,
2013-01-03 14:03:00,23.1,19.0,30.17,West,261,5.0,8.0,84,0.00,,---,0.00,VWS V14.01,2013-01-03 20:03:00,
2013-01-03 14:08:00,23.1,19.0,30.18,WSW,254,5.0,8.0,84,0.00,,---,0.00,VWS V14.01,2013-01-03 20:08:00,
2013-01-03 14:14:00,23.2,19.4,30.18,West,262,5.0,9.0,85,0.00,,---,0.00,VWS V14.01,2013-01-03 20:14:00,
2013-01-03 14:19:00,23.3,19.5,30.18,WSW,246,9.0,10.0,85,0.00,,---,0.00,VWS V14.01,2013-01-03 20:19:00,
2013-01-03 14:23:00,23.4,19.6,30.18,WSW,250,5.0,10.0,85,0.00,,---,0.00,VWS V14.01,2013-01-03 20:23:00,
2013-01-03 14:29:00,23.6,19.8,30.18,WSW,246,8.0,10.0,85,0.00,,---,0.00,VWS V14.01,2013-01-03 20:29:00,
2013-01-03 14:34:00,23.7,19.9,30.19,WSW,248,7.0,10.0,85,0.00,,---,0.00,VWS V14.01,2013-01-03 20:34:00,
2013-01-03 14:39:00,23.7,21.7,30.19,WSW,251,9.0,11.0,92,0.00,,---,0.00,VWS V14.01,2013-01-03 20:39:00,
2013-01-03 14:44:00,23.8,20.0,30.19,West,261,8.0,11.0,85,0.00,,---,0.00,VWS V14.01,2013-01-03 20:44:00,
2013-01-03 14:49:00,23.9,20.1,30.19,WNW,284,8.0,9.0,85,0.00,,---,0.00,VWS V14.01,2013-01-03 20:49:00,
2013-01-03 14:54:00,24.0,19.9,30.20,West,262,9.0,9.0,84,0.00,,---,0.00,VWS V14.01,2013-01-03 20:54:00,
2013-01-03 14:58:00,24.1,20.0,30.20,West,269,8.0,10.0,84,0.00,,---,0.00,VWS V14.01,2013-01-03 20:58:00,
2013-01-03 15:03:00,24.1,20.0,30.20,WSW,240,8.0,10.0,84,0.00,,---,0.00,VWS V14.01,2013-01-03 21:03:00,
2013-01-03 15:09:00,24.3,20.2,30.20,West,279,8.0,12.0,84,0.00,,---,0.00,VWS V14.01,2013-01-03 21:09:00,
2013-01-03 15:14:00,24.3,19.9,30.20,West,273,10.0,13.0,83,0.00,,---,0.00,VWS V14.01,2013-01-03 21:14:00,
2013-01-03 15:19:00,24.4,20.0,30.20,WSW,246,9.0,12.0,83,0.00,,---,0.00,VWS V14.01,2013-01-03 21:19:00,
2013-01-03 15:24:00,24.5,20.1,30.20,West,281,12.0,15.0,83,0.00,,---,0.00,VWS V14.01,2013-01-03 21:24:00,
2013-01-03 15:29:00,24.5,20.1,30.20,West,263,6.0,15.0,83,0.00,,---,0.00,VWS V14.01,2013-01-03 21:29:00,
2013-01-03 15:34:00,24.4,20.0,30.20,West,266,8.0,10.0,83,0.00,,---,0.00,VWS V14.01,2013-01-03 21:34:00,
2013-01-03 15:39:00,24.4,20.0,30.20,West,262,8.0,11.0,83,0.00,,---,0.00,VWS V14.01,2013-01-03 21:39:00,
2013-01-03 15:44:00,24.4,20.0,30.20,West,273,5.0,12.0,83,0.00,,---,0.00,VWS V14.01,2013-01-03 21:44:00,
2013-01-03 15:49:00,24.4,20.0,30.21,West,264,5.0,15.0,83,0.00,,---,0.00,VWS V14.01,2013-01-03 21:49:00,
2013-01-03 15:54:00,24.4,20.0,30.21,WSW,250,10.0,15.0,83,0.00,,---,0.00,VWS V14.01,2013-01-03 21:54:00,
2013-01-03 15:59:00,24.4,20.0,30.21,West,277,7.0,15.0,83,0.00,,---,0.00,VWS V14.01,2013-01-03 21:59:00,
2013-01-03 16:04:00,24.3,20.2,30.21,WSW,245,7.0,7.0,84,0.00,,---,0.00,VWS V14.01,2013-01-03 22:04:00,
2013-01-03 16:09:00,24.3,20.2,30.21,West,265,7.0,10.0,84,0.00,,---,0.00,VWS V14.01,2013-01-03 22:09:00,
2013-01-03 16:14:00,24.3,20.2,30.21,WSW,253,8.0,12.0,84,0.00,,---,0.00,VWS V14.01,2013-01-03 22:14:00,
2013-01-03 16:19:00,24.3,20.2,30.21,WSW,257,7.0,12.0,84,0.00,,---,0.00,VWS V14.01,2013-01-03 22:19:00,
2013-01-03 16:24:00,24.3,19.9,30.21,WSW,258,9.0,14.0,83,0.00,,---,0.00,VWS V14.01,2013-01-03 22:24:00,
2013-01-03 16:29:00,24.3,20.2,30.22,West,273,5.0,14.0,84,0.00,,---,0.00,VWS V14.01,2013-01-03 22:29:00,
2013-01-03 16:34:00,24.3,20.2,30.22,WSW,242,8.0,10.0,84,0.00,,---,0.00,VWS V14.01,2013-01-03 22:34:00,
2013-01-03 16:39:00,24.2,20.4,30.21,WSW,246,7.0,11.0,85,0.00,,---,0.00,VWS V14.01,2013-01-03 22:39:00,
2013-01-03 16:44:00,24.1,20.2,30.22,WSW,238,7.0,11.0,85,0.00,,---,0.00,VWS V14.01,2013-01-03 22:44:00,
2013-01-03 16:49:00,24.1,20.0,30.22,WSW,247,8.0,13.0,84,0.00,,---,0.00,VWS V14.01,2013-01-03 22:49:00,
2013-01-03 16:54:00,24.0,20.1,30.22,WSW,246,8.0,14.0,85,0.00,,---,0.00,VWS V14.01,2013-01-03 22:54:00,
2013-01-03 16:59:00,23.8,20.0,30.22,SW,231,10.0,16.0,85,0.00,,---,0.00,VWS V14.01,2013-01-03 22:59:00,
2013-01-03 17:04:00,23.5,19.7,30.22,WSW,245,10.0,13.0,85,0.00,,---,0.00,VWS V14.01,2013-01-03 23:04:00,
2013-01-03 17:10:00,23.0,18.9,30.22,WSW,246,12.0,15.0,84,0.00,,---,0.00,VWS V14.01,2013-01-03 23:10:00,
2013-01-03 17:15:00,22.4,18.3,30.22,WSW,248,6.0,15.0,84,0.00,,---,0.00,VWS V14.01,2013-01-03 23:15:00,
2013-01-03 17:20:00,21.8,17.7,30.23,WSW,248,7.0,11.0,84,0.00,,---,0.00,VWS V14.01,2013-01-03 23:20:00,
2013-01-03 17:25:00,21.4,17.6,30.23,WSW,255,6.0,11.0,85,0.00,,---,0.00,VWS V14.01,2013-01-03 23:25:00,
2013-01-03 17:30:00,21.4,17.6,30.23,West,269,9.0,11.0,85,0.00,,---,0.00,VWS V14.01,2013-01-03 23:30:00,
2013-01-03 17:34:00,21.6,17.8,30.23,WSW,253,7.0,9.0,85,0.00,,---,0.00,VWS V14.01,2013-01-03 23:34:00,
2013-01-03 17:39:00,21.0,16.9,30.23,WSW,257,4.0,9.0,84,0.00,,---,0.00,VWS V14.01,2013-01-03 23:39:00,
2013-01-03 17:44:00,20.0,15.9,30.22,WSW,242,6.0,9.0,84,0.00,,---,0.00,VWS V14.01,2013-01-03 23:44:00,
2013-01-03 17:50:00,19.8,16.3,30.23,SW,236,6.0,8.0,86,0.00,,---,0.00,VWS V14.01,2013-01-03 23:50:00,
2013-01-03 17:55:00,19.3,15.5,30.22,SW,235,6.0,8.0,85,0.00,,---,0.00,VWS V14.01,2013-01-03 23:55:00,
2013-01-03 18:00:00,18.8,15.3,30.22,WSW,237,5.0,8.0,86,0.00,,---,0.00,VWS V14.01,2013-01-04 00:00:00,
2013-01-03 18:05:00,18.1,14.6,30.22,SW,236,5.0,6.0,86,0.00,,---,0.00,VWS V14.01,2013-01-04 00:05:00,
2013-01-03 18:09:00,17.4,13.9,30.23,SW,236,6.0,7.0,86,0.00,,---,0.00,VWS V14.01,2013-01-04 00:09:00,
2013-01-03 18:14:00,17.1,13.9,30.23,SW,236,7.0,7.0,87,0.00,,---,0.00,VWS V14.01,2013-01-04 00:14:00,
2013-01-03 18:19:00,17.0,13.8,30.23,SW,236,5.0,7.0,87,0.00,,---,0.00,VWS V14.01,2013-01-04 00:19:00,
2013-01-03 18:24:00,16.8,13.6,30.23,SW,236,7.0,7.0,87,0.00,,---,0.00,VWS V14.01,2013-01-04 00:24:00,
2013-01-03 18:29:00,16.5,13.6,30.23,SW,235,7.0,7.0,88,0.00,,---,0.00,VWS V14.01,2013-01-04 00:29:00,
2013-01-03 18:34:00,16.2,13.0,30.23,SW,235,5.0,7.0,87,0.00,,---,0.00,VWS V14.01,2013-01-04 00:34:00,
2013-01-03 18:39:00,15.9,13.0,30.23,SW,235,6.0,7.0,88,0.00,,---,0.00,VWS V14.01,2013-01-04 00:39:00,
2013-01-03 18:44:00,15.6,12.7,30.23,SW,235,5.0,7.0,88,0.00,,---,0.00,VWS V14.01,2013-01-04 00:44:00,
2013-01-03 18:50:00,15.3,12.4,30.23,SW,235,5.0,7.0,88,0.00,,---,0.00,VWS V14.01,2013-01-04 00:50:00,
2013-01-03 18:55:00,15.0,12.1,30.23,SW,234,5.0,7.0,88,0.00,,---,0.00,VWS V14.01,2013-01-04 00:55:00,
2013-01-03 19:00:00,15.6,12.9,30.23,SSW,202,7.0,8.0,89,0.00,,---,0.00,VWS V14.01,2013-01-04 01:00:00,
2013-01-03 19:05:00,16.2,13.8,30.23,SSW,202,7.0,7.0,90,0.00,,---,0.00,VWS V14.01,2013-01-04 01:05:00,
2013-01-03 19:10:00,16.5,14.1,30.23,SSW,202,6.0,7.0,90,0.00,,---,0.00,VWS V14.01,2013-01-04 01:10:00,
2013-01-03 19:15:00,16.3,13.6,30.23,SSW,202,7.0,7.0,89,0.00,,---,0.00,VWS V14.01,2013-01-04 01:15:00,
2013-01-03 19:20:00,15.3,12.4,30.24,SSW,202,5.0,7.0,88,0.00,,---,0.00,VWS V14.01,2013-01-04 01:20:00,
2013-01-03 19:25:00,15.0,12.4,30.23,SSW,202,5.0,7.0,89,0.00,,---,0.00,VWS V14.01,2013-01-04 01:25:00,
2013-01-03 19:30:00,15.0,12.4,30.23,SSW,202,7.0,7.0,89,0.00,,---,0.00,VWS V14.01,2013-01-04 01:30:00,
2013-01-03 19:35:00,15.6,13.2,30.23,SSW,205,7.0,9.0,90,0.00,,---,0.00,VWS V14.01,2013-01-04 01:35:00,
2013-01-03 19:40:00,15.8,13.4,30.22,SSW,198,8.0,9.0,90,0.00,,---,0.00,VWS V14.01,2013-01-04 01:40:00,
2013-01-03 19:45:00,16.0,13.3,30.22,SSW,205,7.0,9.0,89,0.00,,---,0.00,VWS V14.01,2013-01-04 01:45:00,
2013-01-03 19:50:00,15.9,13.2,30.22,SSW,202,6.0,9.0,89,0.00,,---,0.00,VWS V14.01,2013-01-04 01:50:00,
2013-01-03 19:55:00,15.8,13.1,30.22,SSW,202,7.0,9.0,89,0.00,,---,0.00,VWS V14.01,2013-01-04 01:55:00,
2013-01-03 20:00:00,15.7,13.0,30.22,SSW,205,6.0,9.0,89,0.00,,---,0.00,VWS V14.01,2013-01-04 02:00:00,
2013-01-03 20:05:00,15.4,12.7,30.22,SSW,200,7.0,8.0,89,0.00,,---,0.00,VWS V14.01,2013-01-04 02:05:00,
2013-01-03 20:10:00,15.1,12.4,30.23,SSW,200,6.0,8.0,89,0.00,,---,0.00,VWS V14.01,2013-01-04 02:10:00,
2013-01-03 20:15:00,14.6,11.9,30.23,SSW,200,7.0,8.0,89,0.00,,---,0.00,VWS V14.01,2013-01-04 02:15:00,
2013-01-03 20:20:00,14.1,11.5,30.22,SSW,200,5.0,7.0,89,0.00,,---,0.00,VWS V14.01,2013-01-04 02:20:00,
2013-01-03 20:25:00,13.5,10.9,30.22,SSW,201,5.0,7.0,89,0.00,,---,0.00,VWS V14.01,2013-01-04 02:25:00,
2013-01-03 20:30:00,13.0,10.4,30.22,SSW,200,6.0,8.0,89,0.00,,---,0.00,VWS V14.01,2013-01-04 02:30:00,
2013-01-03 20:35:00,13.2,10.8,30.22,SSW,200,7.0,7.0,90,0.00,,---,0.00,VWS V14.01,2013-01-04 02:35:00,
2013-01-03 20:40:00,13.4,11.0,30.22,SSW,200,7.0,8.0,90,0.00,,---,0.00,VWS V14.01,2013-01-04 02:40:00,
2013-01-03 20:45:00,13.2,10.8,30.22,SSW,200,7.0,9.0,90,0.00,,---,0.00,VWS V14.01,2013-01-04 02:45:00,
2013-01-03 20:50:00,13.5,11.1,30.22,SSW,209,7.0,9.0,90,0.00,,---,0.00,VWS V14.01,2013-01-04 02:50:00,
2013-01-03 20:55:00,13.6,11.2,30.21,SSW,209,6.0,9.0,90,0.00,,---,0.00,VWS V14.01,2013-01-04 02:55:00,
2013-01-03 21:00:00,13.4,11.0,30.21,SSW,209,6.0,7.0,90,0.00,,---,0.00,VWS V14.01,2013-01-04 03:00:00,
2013-01-03 21:05:00,12.9,10.5,30.21,SSW,209,7.0,7.0,90,0.00,,---,0.00,VWS V14.01,2013-01-04 03:05:00,
2013-01-03 21:10:00,13.0,10.6,30.21,SSW,209,7.0,7.0,90,0.00,,---,0.00,VWS V14.01,2013-01-04 03:10:00,
2013-01-03 21:15:00,13.2,10.8,30.21,SW,215,7.0,8.0,90,0.00,,---,0.00,VWS V14.01,2013-01-04 03:15:00,
2013-01-03 21:20:00,13.6,11.2,30.21,SW,217,9.0,10.0,90,0.00,,---,0.00,VWS V14.01,2013-01-04 03:20:00,
2013-01-03 21:25:00,13.9,11.5,30.21,SW,220,9.0,11.0,90,0.00,,---,0.00,VWS V14.01,2013-01-04 03:25:00,
2013-01-03 21:31:00,14.1,11.7,30.21,SW,221,9.0,11.0,90,0.00,,---,0.00,VWS V14.01,2013-01-04 03:31:00,
2013-01-03 21:36:00,14.1,11.5,30.22,SW,222,8.0,11.0,89,0.00,,---,0.00,VWS V14.01,2013-01-04 03:36:00,
2013-01-03 21:41:00,13.9,11.3,30.22,SW,221,9.0,11.0,89,0.00,,---,0.00,VWS V14.01,2013-01-04 03:41:00,
2013-01-03 21:46:00,13.6,10.7,30.22,SW,221,9.0,9.0,88,0.00,,---,0.00,VWS V14.01,2013-01-04 03:46:00,
2013-01-03 21:51:00,13.5,10.6,30.22,SW,222,8.0,9.0,88,0.00,,---,0.00,VWS V14.01,2013-01-04 03:51:00,
2013-01-03 21:56:00,13.2,10.3,30.22,SW,221,7.0,9.0,88,0.00,,---,0.00,VWS V14.01,2013-01-04 03:56:00,
2013-01-03 22:01:00,12.8,9.9,30.22,SW,226,7.0,7.0,88,0.00,,---,0.00,VWS V14.01,2013-01-04 04:01:00,
2013-01-03 22:06:00,12.8,9.9,30.22,SW,231,7.0,8.0,88,0.00,,---,0.00,VWS V14.01,2013-01-04 04:06:00,
2013-01-03 22:11:00,13.0,10.1,30.22,SW,225,9.0,9.0,88,0.00,,---,0.00,VWS V14.01,2013-01-04 04:11:00,
2013-01-03 22:16:00,13.3,10.7,30.22,SW,219,8.0,8.0,89,0.00,,---,0.00,VWS V14.01,2013-01-04 04:16:00,
2013-01-03 22:21:00,13.1,10.2,30.21,SW,223,15.0,15.0,88,0.00,,---,0.00,VWS V14.01,2013-01-04 04:21:00,
2013-01-03 22:26:00,14.1,11.5,30.22,SW,225,12.0,16.0,89,0.00,,---,0.00,VWS V14.01,2013-01-04 04:26:00,
2013-01-03 22:31:00,14.2,11.3,30.21,SW,221,11.0,14.0,88,0.00,,---,0.00,VWS V14.01,2013-01-04 04:31:00,
2013-01-03 22:36:00,14.6,11.4,30.21,SW,225,16.0,16.0,87,0.00,,---,0.00,VWS V14.01,2013-01-04 04:36:00,
2013-01-03 22:41:00,14.5,11.3,30.21,SW,221,8.0,17.0,87,0.00,,---,0.00,VWS V14.01,2013-01-04 04:41:00,
2013-01-03 22:46:00,12.6,9.0,30.21,SSW,203,10.0,10.0,85,0.00,,---,0.00,VWS V14.01,2013-01-04 04:46:00,
2013-01-03 22:51:00,12.0,8.9,30.21,SW,220,9.0,11.0,87,0.00,,---,0.00,VWS V14.01,2013-01-04 04:51:00,
2013-01-03 22:56:00,12.0,8.9,30.21,SW,214,9.0,12.0,87,0.00,,---,0.00,VWS V14.01,2013-01-04 04:56:00,
2013-01-03 23:00:00,11.7,8.6,30.21,SW,215,9.0,12.0,87,0.00,,---,0.00,VWS V14.01,2013-01-04 05:00:00,
2013-01-03 23:02:00,11.5,8.4,30.21,SW,215,8.0,10.0,87,0.00,,---,0.00,VWS V14.01,2013-01-04 05:02:00,
2013-01-03 23:03:00,11.4,8.3,30.21,SSW,212,8.0,10.0,87,0.00,,---,0.00,VWS V14.01,2013-01-04 05:03:00,
2013-01-03 23:04:00,11.4,8.3,30.21,SSW,210,7.0,10.0,87,0.00,,---,0.00,VWS V14.01,2013-01-04 05:04:00,
2013-01-03 23:09:00,11.3,8.4,30.20,SSW,197,8.0,11.0,88,0.00,,---,0.00,VWS V14.01,2013-01-04 05:09:00,
2013-01-03 23:14:00,11.1,8.0,30.20,SSW,204,8.0,11.0,87,0.00,,---,0.00,VWS V14.01,2013-01-04 05:14:00,
2013-01-03 23:19:00,11.4,8.5,30.20,SSW,209,8.0,10.0,88,0.00,,---,0.00,VWS V14.01,2013-01-04 05:19:00,
2013-01-03 23:24:00,11.5,8.6,30.20,SW,214,8.0,11.0,88,0.00,,---,0.00,VWS V14.01,2013-01-04 05:24:00,
2013-01-03 23:29:00,11.2,8.4,30.20,SW,216,10.0,12.0,88,0.00,,---,0.00,VWS V14.01,2013-01-04 05:29:00,
2013-01-03 23:34:00,11.3,8.4,30.20,SW,217,9.0,11.0,88,0.00,,---,0.00,VWS V14.01,2013-01-04 05:34:00,
2013-01-03 23:39:00,11.5,8.6,30.20,SW,219,10.0,13.0,88,0.00,,---,0.00,VWS V14.01,2013-01-04 05:39:00,
2013-01-03 23:44:00,11.6,8.5,30.20,SW,221,10.0,13.0,87,0.00,,---,0.00,VWS V14.01,2013-01-04 05:44:00,
2013-01-03 23:50:00,11.7,8.6,30.20,SW,218,11.0,12.0,87,0.00,,---,0.00,VWS V14.01,2013-01-04 05:50:00,
2013-01-03 23:55:00,11.6,8.5,30.20,SW,222,10.0,13.0,87,0.00,,---,0.00,VWS V14.01,2013-01-04 05:55:00,